,,PressureMeas_1m,,PRMeasQMR101_1,,RHStat155_1m_1,,SRMeasQMS101R_1m,,TAStat155_1m_1,,GenWind_1,,GenWind_1,
2019-10-29, 00:00:06,VALID,917.784,VALID,0.0,VALID,99.276,VALID,-0.086,VALID,20.482,VALID,125.0,VALID,0.0,
2019-10-29, 00:01:06,VALID,917.78,VALID,0.0,VALID,99.216,VALID,-0.085,VALID,20.494,VALID,130.0,VALID,0.0,
2019-10-29, 00:02:06,VALID,917.778,VALID,0.0,VALID,99.14,VALID,-0.079,VALID,20.522,VALID,123.0,VALID,0.0,
2019-10-29, 00:03:06,VALID,917.777,VALID,0.0,VALID,99.05,VALID,-0.096,VALID,20.547,VALID,124.0,VALID,0.0,
2019-10-29, 00:04:06,VALID,917.794,VALID,0.0,VALID,98.948,VALID,-0.113,VALID,20.546,VALID,135.0,VALID,0.0,
2019-10-29, 00:05:06,VALID,917.761,VALID,0.0,VALID,98.822,VALID,-0.107,VALID,20.559,VALID,103.0,VALID,0.0,
2019-10-29, 00:06:06,VALID,917.76,VALID,0.0,VALID,98.788,VALID,-0.08,VALID,20.581,VALID,97.0,VALID,0.0,
2019-10-29, 00:07:06,VALID,917.777,VALID,0.0,VALID,98.724,VALID,-0.049,VALID,20.587,VALID,109.0,VALID,0.0,
2019-10-29, 00:08:06,VALID,917.764,VALID,0.0,VALID,98.665,VALID,-0.059,VALID,20.586,VALID,123.0,VALID,0.0,
2019-10-29, 00:09:06,VALID,917.759,VALID,0.0,VALID,98.642,VALID,-0.051,VALID,20.597,VALID,116.0,VALID,0.0,
2019-10-29, 00:10:06,VALID,917.761,VALID,0.0,VALID,98.558,VALID,-0.051,VALID,20.588,VALID,111.0,VALID,0.0,
2019-10-29, 00:11:06,VALID,917.759,VALID,0.0,VALID,98.269,VALID,-0.056,VALID,20.582,VALID,133.0,VALID,0.0,
2019-10-29, 00:12:06,VALID,917.746,VALID,0.0,VALID,98.235,VALID,-0.055,VALID,20.62,VALID,153.0,VALID,0.0,
2019-10-29, 00:13:06,VALID,917.745,VALID,0.0,VALID,98.267,VALID,-0.074,VALID,20.631,VALID,116.0,VALID,0.045,
2019-10-29, 00:14:06,VALID,917.727,VALID,0.0,VALID,98.241,VALID,-0.062,VALID,20.628,VALID,143.0,VALID,0.214,
2019-10-29, 00:15:06,VALID,917.715,VALID,0.0,VALID,98.198,VALID,-0.069,VALID,20.639,VALID,120.0,VALID,0.164,
2019-10-29, 00:16:06,VALID,917.708,VALID,0.0,VALID,98.087,VALID,-0.052,VALID,20.648,VALID,106.0,VALID,0.292,
2019-10-29, 00:17:06,VALID,917.686,VALID,0.0,VALID,97.93,VALID,-0.044,VALID,20.644,VALID,115.0,VALID,0.189,
2019-10-29, 00:18:06,VALID,917.687,VALID,0.0,VALID,97.886,VALID,-0.044,VALID,20.657,VALID,147.0,VALID,0.0,
2019-10-29, 00:19:06,VALID,917.664,VALID,0.0,VALID,97.847,VALID,-0.037,VALID,20.669,VALID,145.0,VALID,0.0,
2019-10-29, 00:20:06,VALID,917.664,VALID,0.0,VALID,97.858,VALID,-0.059,VALID,20.678,VALID,145.0,VALID,0.0,
2019-10-29, 00:21:06,VALID,917.656,VALID,0.0,VALID,97.868,VALID,-0.031,VALID,20.683,VALID,120.0,VALID,0.0,
2019-10-29, 00:22:06,VALID,917.653,VALID,0.0,VALID,97.87,VALID,-0.023,VALID,20.68,VALID,118.0,VALID,0.0,
2019-10-29, 00:23:06,VALID,917.625,VALID,0.0,VALID,97.954,VALID,-0.01,VALID,20.702,VALID,124.0,VALID,0.0,
2019-10-29, 00:24:06,VALID,917.609,VALID,0.0,VALID,98.146,VALID,-0.016,VALID,20.719,VALID,177.0,VALID,0.0,
2019-10-29, 00:25:06,VALID,917.596,VALID,0.0,VALID,98.339,VALID,-0.023,VALID,20.694,VALID,195.0,VALID,0.0,
2019-10-29, 00:26:06,VALID,917.582,VALID,0.0,VALID,98.44,VALID,-0.026,VALID,20.628,VALID,185.0,VALID,0.0,
2019-10-29, 00:27:06,VALID,917.562,VALID,0.0,VALID,98.573,VALID,-0.015,VALID,20.584,VALID,200.0,VALID,0.0,
2019-10-29, 00:28:06,VALID,917.527,VALID,0.0,VALID,98.801,VALID,0.001,VALID,20.557,VALID,207.0,VALID,0.0,
2019-10-29, 00:29:06,VALID,917.521,VALID,0.0,VALID,98.995,VALID,-0.012,VALID,20.526,VALID,194.0,VALID,0.0,
2019-10-29, 00:30:06,VALID,917.498,VALID,0.0,VALID,99.046,VALID,-0.027,VALID,20.483,VALID,157.0,VALID,0.0,
2019-10-29, 00:31:06,VALID,917.51,VALID,0.0,VALID,99.049,VALID,-0.004,VALID,20.477,VALID,157.0,VALID,0.0,
2019-10-29, 00:32:06,VALID,917.482,VALID,0.0,VALID,99.104,VALID,-0.027,VALID,20.488,VALID,157.0,VALID,0.0,
2019-10-29, 00:33:06,VALID,917.442,VALID,0.0,VALID,99.061,VALID,-0.026,VALID,20.489,VALID,145.0,VALID,0.0,
2019-10-29, 00:34:06,VALID,917.464,VALID,0.0,VALID,98.974,VALID,-0.021,VALID,20.476,VALID,116.0,VALID,0.0,
2019-10-29, 00:35:06,VALID,917.442,VALID,0.0,VALID,98.872,VALID,-0.011,VALID,20.477,VALID,106.0,VALID,0.0,
2019-10-29, 00:36:06,VALID,917.417,VALID,0.0,VALID,98.827,VALID,-0.019,VALID,20.483,VALID,106.0,VALID,0.0,
2019-10-29, 00:37:06,VALID,917.428,VALID,0.0,VALID,98.747,VALID,-0.037,VALID,20.476,VALID,106.0,VALID,0.0,
2019-10-29, 00:38:06,VALID,917.4,VALID,0.0,VALID,98.697,VALID,-0.038,VALID,20.479,VALID,76.0,VALID,0.0,
2019-10-29, 00:39:06,VALID,917.378,VALID,0.0,VALID,98.731,VALID,-0.038,VALID,20.503,VALID,5.0,VALID,0.0,
2019-10-29, 00:40:06,VALID,917.358,VALID,0.0,VALID,98.767,VALID,-0.04,VALID,20.505,VALID,359.0,VALID,0.0,
2019-10-29, 00:41:06,VALID,917.374,VALID,0.0,VALID,98.77,VALID,-0.013,VALID,20.486,VALID,342.0,VALID,0.0,
2019-10-29, 00:42:06,VALID,917.336,VALID,0.0,VALID,98.78,VALID,-0.014,VALID,20.46,VALID,314.0,VALID,0.0,
2019-10-29, 00:43:06,VALID,917.341,VALID,0.0,VALID,98.888,VALID,-0.025,VALID,20.455,VALID,260.0,VALID,0.0,
2019-10-29, 00:44:06,VALID,917.34,VALID,0.0,VALID,99.01,VALID,-0.026,VALID,20.454,VALID,257.0,VALID,0.0,
2019-10-29, 00:45:06,VALID,917.328,VALID,0.0,VALID,99.159,VALID,-0.037,VALID,20.476,VALID,257.0,VALID,0.0,
2019-10-29, 00:46:06,VALID,917.325,VALID,0.0,VALID,99.286,VALID,-0.045,VALID,20.485,VALID,257.0,VALID,0.0,
2019-10-29, 00:47:06,VALID,917.318,VALID,0.0,VALID,99.387,VALID,-0.054,VALID,20.482,VALID,257.0,VALID,0.0,
2019-10-29, 00:48:06,VALID,917.308,VALID,0.0,VALID,99.451,VALID,-0.039,VALID,20.473,VALID,257.0,VALID,0.0,
2019-10-29, 00:49:06,VALID,917.276,VALID,0.0,VALID,99.531,VALID,-0.023,VALID,20.463,VALID,257.0,VALID,0.0,
2019-10-29, 00:50:06,VALID,917.256,VALID,0.0,VALID,99.623,VALID,-0.055,VALID,20.468,VALID,257.0,VALID,0.0,
2019-10-29, 00:51:06,VALID,917.228,VALID,0.0,VALID,99.705,VALID,-0.033,VALID,20.479,VALID,257.0,VALID,0.0,
2019-10-29, 00:52:06,VALID,917.205,VALID,0.0,VALID,99.749,VALID,-0.027,VALID,20.461,VALID,257.0,VALID,0.0,
2019-10-29, 00:53:06,VALID,917.184,VALID,0.0,VALID,99.735,VALID,-0.024,VALID,20.414,VALID,257.0,VALID,0.0,
2019-10-29, 00:54:06,VALID,917.181,VALID,0.0,VALID,99.759,VALID,-0.035,VALID,20.39,VALID,257.0,VALID,0.0,
2019-10-29, 00:55:06,VALID,917.194,VALID,0.0,VALID,99.814,VALID,-0.044,VALID,20.422,VALID,356.0,VALID,0.0,
2019-10-29, 00:56:06,VALID,917.188,VALID,0.0,VALID,99.838,VALID,-0.033,VALID,20.428,VALID,13.0,VALID,0.0,
2019-10-29, 00:57:06,VALID,917.19,VALID,0.0,VALID,99.85,VALID,-0.033,VALID,20.41,VALID,14.0,VALID,0.0,
2019-10-29, 00:58:06,VALID,917.196,VALID,0.0,VALID,99.85,VALID,-0.024,VALID,20.386,VALID,14.0,VALID,0.0,
2019-10-29, 00:59:06,VALID,917.195,VALID,0.0,VALID,99.852,VALID,-0.026,VALID,20.352,VALID,14.0,VALID,0.0,
2019-10-29, 01:00:06,VALID,917.198,VALID,0.0,VALID,99.863,VALID,-0.029,VALID,20.335,VALID,14.0,VALID,0.0,
2019-10-29, 01:01:06,VALID,917.199,VALID,0.0,VALID,99.861,VALID,-0.035,VALID,20.312,VALID,14.0,VALID,0.0,
2019-10-29, 01:02:06,VALID,917.168,VALID,0.0,VALID,99.874,VALID,-0.035,VALID,20.308,VALID,14.0,VALID,0.0,
2019-10-29, 01:03:06,VALID,917.166,VALID,0.0,VALID,99.909,VALID,-0.03,VALID,20.326,VALID,14.0,VALID,0.0,
2019-10-29, 01:04:06,VALID,917.139,VALID,0.0,VALID,99.918,VALID,-0.016,VALID,20.311,VALID,14.0,VALID,0.0,
2019-10-29, 01:05:06,VALID,917.126,VALID,0.0,VALID,99.918,VALID,-0.02,VALID,20.316,VALID,14.0,VALID,0.0,
2019-10-29, 01:06:06,VALID,917.118,VALID,0.0,VALID,99.917,VALID,-0.018,VALID,20.309,VALID,14.0,VALID,0.0,
2019-10-29, 01:07:06,VALID,917.082,VALID,0.0,VALID,99.919,VALID,0.018,VALID,20.298,VALID,14.0,VALID,0.0,
2019-10-29, 01:08:06,VALID,917.078,VALID,0.0,VALID,99.917,VALID,0.007,VALID,20.291,VALID,13.0,VALID,0.0,
2019-10-29, 01:09:06,VALID,917.086,VALID,0.0,VALID,99.914,VALID,-0.001,VALID,20.277,VALID,13.0,VALID,0.0,
2019-10-29, 01:10:06,VALID,917.065,VALID,0.0,VALID,99.918,VALID,0.002,VALID,20.289,VALID,13.0,VALID,0.0,
2019-10-29, 01:11:06,VALID,917.03,VALID,0.0,VALID,99.918,VALID,0.008,VALID,20.277,VALID,13.0,VALID,0.0,
2019-10-29, 01:12:06,VALID,917.042,VALID,0.0,VALID,99.916,VALID,-0.006,VALID,20.269,VALID,13.0,VALID,0.0,
2019-10-29, 01:13:06,VALID,917.034,VALID,0.0,VALID,99.917,VALID,0.003,VALID,20.259,VALID,13.0,VALID,0.0,
2019-10-29, 01:14:06,VALID,917.018,VALID,0.0,VALID,99.917,VALID,-0.009,VALID,20.26,VALID,12.0,VALID,0.0,
2019-10-29, 01:15:06,VALID,917.006,VALID,0.0,VALID,99.915,VALID,-0.009,VALID,20.273,VALID,12.0,VALID,0.0,
2019-10-29, 01:16:06,VALID,916.991,VALID,0.0,VALID,99.915,VALID,0.015,VALID,20.291,VALID,12.0,VALID,0.0,
2019-10-29, 01:17:06,VALID,916.975,VALID,0.0,VALID,99.918,VALID,0.022,VALID,20.29,VALID,12.0,VALID,0.0,
2019-10-29, 01:18:06,VALID,916.949,VALID,0.0,VALID,99.915,VALID,0.008,VALID,20.267,VALID,12.0,VALID,0.0,
2019-10-29, 01:19:06,VALID,916.92,VALID,0.0,VALID,99.918,VALID,-0.002,VALID,20.259,VALID,12.0,VALID,0.0,
2019-10-29, 01:20:06,VALID,916.903,VALID,0.0,VALID,99.917,VALID,0.016,VALID,20.268,VALID,12.0,VALID,0.0,
2019-10-29, 01:21:06,VALID,916.902,VALID,0.0,VALID,99.916,VALID,0.017,VALID,20.283,VALID,12.0,VALID,0.0,
2019-10-29, 01:22:06,VALID,916.887,VALID,0.0,VALID,99.915,VALID,0.008,VALID,20.282,VALID,12.0,VALID,0.0,
2019-10-29, 01:23:06,VALID,916.879,VALID,0.0,VALID,99.915,VALID,0.014,VALID,20.286,VALID,12.0,VALID,0.0,
2019-10-29, 01:24:06,VALID,916.861,VALID,0.0,VALID,99.916,VALID,0.027,VALID,20.293,VALID,12.0,VALID,0.0,
2019-10-29, 01:25:06,VALID,916.839,VALID,0.0,VALID,99.916,VALID,0.01,VALID,20.305,VALID,12.0,VALID,0.0,
2019-10-29, 01:26:06,VALID,916.819,VALID,0.0,VALID,99.918,VALID,0.008,VALID,20.306,VALID,12.0,VALID,0.0,
2019-10-29, 01:27:06,VALID,916.792,VALID,0.0,VALID,99.919,VALID,0.01,VALID,20.29,VALID,12.0,VALID,0.0,
2019-10-29, 01:28:06,VALID,916.791,VALID,0.0,VALID,99.918,VALID,0.004,VALID,20.302,VALID,12.0,VALID,0.0,
2019-10-29, 01:29:06,VALID,916.756,VALID,0.0,VALID,99.916,VALID,-0.013,VALID,20.317,VALID,12.0,VALID,0.0,
2019-10-29, 01:30:06,VALID,916.735,VALID,0.0,VALID,99.919,VALID,-0.008,VALID,20.336,VALID,12.0,VALID,0.0,
2019-10-29, 01:31:06,VALID,916.713,VALID,0.0,VALID,99.915,VALID,0.004,VALID,20.337,VALID,12.0,VALID,0.0,
2019-10-29, 01:32:06,VALID,916.686,VALID,0.0,VALID,99.919,VALID,0.012,VALID,20.341,VALID,12.0,VALID,0.0,
2019-10-29, 01:33:06,VALID,916.656,VALID,0.0,VALID,99.915,VALID,0.014,VALID,20.338,VALID,12.0,VALID,0.0,
2019-10-29, 01:34:06,VALID,916.628,VALID,0.0,VALID,99.917,VALID,0.024,VALID,20.306,VALID,12.0,VALID,0.0,
2019-10-29, 01:35:06,VALID,916.631,VALID,0.0,VALID,99.916,VALID,0.019,VALID,20.262,VALID,12.0,VALID,0.0,
2019-10-29, 01:36:06,VALID,916.604,VALID,0.0,VALID,99.916,VALID,0.002,VALID,20.242,VALID,12.0,VALID,0.0,
2019-10-29, 01:37:06,VALID,916.584,VALID,0.0,VALID,99.915,VALID,-0.003,VALID,20.252,VALID,12.0,VALID,0.0,
2019-10-29, 01:38:06,VALID,916.589,VALID,0.0,VALID,99.918,VALID,-0.003,VALID,20.256,VALID,12.0,VALID,0.0,
2019-10-29, 01:39:06,VALID,916.573,VALID,0.0,VALID,99.918,VALID,-0.014,VALID,20.242,VALID,12.0,VALID,0.0,
2019-10-29, 01:40:06,VALID,916.594,VALID,0.0,VALID,99.915,VALID,-0.01,VALID,20.254,VALID,12.0,VALID,0.0,
2019-10-29, 01:41:06,VALID,916.61,VALID,0.0,VALID,99.915,VALID,-0.005,VALID,20.262,VALID,12.0,VALID,0.0,
2019-10-29, 01:42:06,VALID,916.587,VALID,0.0,VALID,99.917,VALID,-0.006,VALID,20.267,VALID,12.0,VALID,0.0,
2019-10-29, 01:43:06,VALID,916.592,VALID,0.0,VALID,99.914,VALID,-0.014,VALID,20.247,VALID,12.0,VALID,0.0,
2019-10-29, 01:44:06,VALID,916.595,VALID,0.0,VALID,99.918,VALID,-0.025,VALID,20.245,VALID,12.0,VALID,0.0,
2019-10-29, 01:45:06,VALID,916.571,VALID,0.0,VALID,99.917,VALID,-0.018,VALID,20.249,VALID,12.0,VALID,0.0,
2019-10-29, 01:46:06,VALID,916.573,VALID,0.0,VALID,99.918,VALID,0.001,VALID,20.228,VALID,12.0,VALID,0.0,
2019-10-29, 01:47:06,VALID,916.539,VALID,0.0,VALID,99.919,VALID,-0.013,VALID,20.214,VALID,12.0,VALID,0.0,
2019-10-29, 01:48:06,VALID,916.552,VALID,0.0,VALID,99.916,VALID,-0.027,VALID,20.207,VALID,12.0,VALID,0.0,
2019-10-29, 01:49:06,VALID,916.55,VALID,0.0,VALID,99.918,VALID,-0.016,VALID,20.211,VALID,12.0,VALID,0.0,
2019-10-29, 01:50:06,VALID,916.55,VALID,0.0,VALID,99.914,VALID,-0.014,VALID,20.202,VALID,12.0,VALID,0.0,
2019-10-29, 01:51:06,VALID,916.574,VALID,0.0,VALID,99.916,VALID,-0.002,VALID,20.172,VALID,12.0,VALID,0.0,
2019-10-29, 01:52:06,VALID,916.585,VALID,0.0,VALID,99.915,VALID,0.0,VALID,20.155,VALID,12.0,VALID,0.0,
2019-10-29, 01:53:06,VALID,916.583,VALID,0.0,VALID,99.915,VALID,-0.009,VALID,20.178,VALID,12.0,VALID,0.0,
2019-10-29, 01:54:06,VALID,916.608,VALID,0.0,VALID,99.916,VALID,-0.002,VALID,20.186,VALID,34.0,VALID,0.0,
2019-10-29, 01:55:06,VALID,916.583,VALID,0.0,VALID,99.915,VALID,-0.011,VALID,20.185,VALID,34.0,VALID,0.0,
2019-10-29, 01:56:06,VALID,916.601,VALID,0.0,VALID,99.916,VALID,-0.024,VALID,20.18,VALID,34.0,VALID,0.0,
2019-10-29, 01:57:06,VALID,916.588,VALID,0.0,VALID,99.914,VALID,-0.019,VALID,20.163,VALID,34.0,VALID,0.0,
2019-10-29, 01:58:06,VALID,916.576,VALID,0.0,VALID,99.915,VALID,-0.008,VALID,20.165,VALID,34.0,VALID,0.0,
2019-10-29, 01:59:06,VALID,916.561,VALID,0.0,VALID,99.917,VALID,-0.011,VALID,20.172,VALID,34.0,VALID,0.0,
2019-10-29, 02:00:06,VALID,916.573,VALID,0.0,VALID,99.916,VALID,-0.017,VALID,20.184,VALID,34.0,VALID,0.0,
2019-10-29, 02:01:06,VALID,916.579,VALID,0.0,VALID,99.917,VALID,-0.006,VALID,20.17,VALID,22.0,VALID,0.0,
2019-10-29, 02:02:06,VALID,916.583,VALID,0.0,VALID,99.916,VALID,-0.006,VALID,20.152,VALID,14.0,VALID,0.0,
2019-10-29, 02:03:06,VALID,916.591,VALID,0.0,VALID,99.915,VALID,-0.007,VALID,20.161,VALID,14.0,VALID,0.0,
2019-10-29, 02:04:06,VALID,916.613,VALID,0.0,VALID,99.914,VALID,0.009,VALID,20.164,VALID,14.0,VALID,0.0,
2019-10-29, 02:05:06,VALID,916.623,VALID,0.0,VALID,99.915,VALID,0.012,VALID,20.173,VALID,14.0,VALID,0.0,
2019-10-29, 02:06:06,VALID,916.635,VALID,0.0,VALID,99.916,VALID,-0.02,VALID,20.184,VALID,14.0,VALID,0.0,
2019-10-29, 02:07:06,VALID,916.619,VALID,0.0,VALID,99.915,VALID,-0.077,VALID,20.2,VALID,14.0,VALID,0.0,
2019-10-29, 02:08:06,VALID,916.606,VALID,0.0,VALID,99.913,VALID,-0.066,VALID,20.207,VALID,346.0,VALID,0.0,
2019-10-29, 02:09:06,VALID,916.614,VALID,0.0,VALID,99.915,VALID,-0.067,VALID,20.192,VALID,344.0,VALID,0.0,
2019-10-29, 02:10:06,VALID,916.584,VALID,0.0,VALID,99.916,VALID,-0.08,VALID,20.195,VALID,344.0,VALID,0.0,
2019-10-29, 02:11:06,VALID,916.554,VALID,0.0,VALID,99.914,VALID,-0.077,VALID,20.186,VALID,344.0,VALID,0.0,
2019-10-29, 02:12:06,VALID,916.556,VALID,0.0,VALID,99.916,VALID,-0.073,VALID,20.184,VALID,344.0,VALID,0.0,
2019-10-29, 02:13:06,VALID,916.531,VALID,0.0,VALID,99.916,VALID,-0.07,VALID,20.196,VALID,344.0,VALID,0.0,
2019-10-29, 02:14:06,VALID,916.493,VALID,0.0,VALID,99.916,VALID,-0.066,VALID,20.226,VALID,344.0,VALID,0.0,
2019-10-29, 02:15:06,VALID,916.48,VALID,0.0,VALID,99.915,VALID,-0.079,VALID,20.248,VALID,344.0,VALID,0.0,
2019-10-29, 02:16:06,VALID,916.467,VALID,0.0,VALID,99.914,VALID,-0.067,VALID,20.217,VALID,344.0,VALID,0.0,
2019-10-29, 02:17:06,VALID,916.47,VALID,0.0,VALID,99.915,VALID,-0.075,VALID,20.227,VALID,344.0,VALID,0.0,
2019-10-29, 02:18:06,VALID,916.478,VALID,0.0,VALID,99.919,VALID,-0.084,VALID,20.253,VALID,344.0,VALID,0.0,
2019-10-29, 02:19:06,VALID,916.479,VALID,0.0,VALID,99.914,VALID,-0.071,VALID,20.263,VALID,346.0,VALID,0.0,
2019-10-29, 02:20:06,VALID,916.486,VALID,0.0,VALID,99.916,VALID,-0.065,VALID,20.269,VALID,346.0,VALID,0.0,
2019-10-29, 02:21:06,VALID,916.486,VALID,0.0,VALID,99.916,VALID,-0.059,VALID,20.249,VALID,346.0,VALID,0.0,
2019-10-29, 02:22:06,VALID,916.506,VALID,0.0,VALID,99.914,VALID,-0.001,VALID,20.233,VALID,346.0,VALID,0.0,
2019-10-29, 02:23:06,VALID,916.505,VALID,0.0,VALID,99.915,VALID,0.01,VALID,20.236,VALID,346.0,VALID,0.0,
2019-10-29, 02:24:06,VALID,916.503,VALID,0.0,VALID,99.915,VALID,0.024,VALID,20.234,VALID,346.0,VALID,0.0,
2019-10-29, 02:25:06,VALID,916.476,VALID,0.0,VALID,99.915,VALID,0.009,VALID,20.215,VALID,346.0,VALID,0.0,
2019-10-29, 02:26:06,VALID,916.474,VALID,0.0,VALID,99.918,VALID,0.002,VALID,20.213,VALID,346.0,VALID,0.0,
2019-10-29, 02:27:06,VALID,916.471,VALID,0.0,VALID,99.917,VALID,-0.008,VALID,20.226,VALID,346.0,VALID,0.0,
2019-10-29, 02:28:06,VALID,916.477,VALID,0.0,VALID,99.92,VALID,0.004,VALID,20.23,VALID,346.0,VALID,0.0,
2019-10-29, 02:29:06,VALID,916.467,VALID,0.0,VALID,99.918,VALID,0.002,VALID,20.238,VALID,346.0,VALID,0.0,
2019-10-29, 02:30:06,VALID,916.467,VALID,0.0,VALID,99.915,VALID,-0.001,VALID,20.239,VALID,346.0,VALID,0.0,
2019-10-29, 02:31:06,VALID,916.488,VALID,0.0,VALID,99.917,VALID,-0.003,VALID,20.245,VALID,346.0,VALID,0.0,
2019-10-29, 02:32:06,VALID,916.494,VALID,0.0,VALID,99.916,VALID,-0.004,VALID,20.252,VALID,17.0,VALID,0.0,
2019-10-29, 02:33:06,VALID,916.512,VALID,0.0,VALID,99.916,VALID,-0.006,VALID,20.249,VALID,30.0,VALID,0.0,
2019-10-29, 02:34:06,VALID,916.517,VALID,0.0,VALID,99.919,VALID,0.003,VALID,20.239,VALID,30.0,VALID,0.0,
2019-10-29, 02:35:06,VALID,916.51,VALID,0.0,VALID,99.917,VALID,-0.021,VALID,20.208,VALID,35.0,VALID,0.0,
2019-10-29, 02:36:06,VALID,916.496,VALID,0.0,VALID,99.914,VALID,-0.008,VALID,20.192,VALID,23.0,VALID,0.0,
2019-10-29, 02:37:06,VALID,916.493,VALID,0.0,VALID,99.916,VALID,-0.098,VALID,20.17,VALID,20.0,VALID,0.0,
2019-10-29, 02:38:06,VALID,916.488,VALID,0.0,VALID,99.915,VALID,-0.088,VALID,20.184,VALID,20.0,VALID,0.0,
2019-10-29, 02:39:06,VALID,916.456,VALID,0.0,VALID,99.914,VALID,-0.087,VALID,20.183,VALID,20.0,VALID,0.0,
2019-10-29, 02:40:06,VALID,916.447,VALID,0.0,VALID,99.917,VALID,-0.092,VALID,20.177,VALID,354.0,VALID,0.0,
2019-10-29, 02:41:06,VALID,916.436,VALID,0.0,VALID,99.914,VALID,-0.097,VALID,20.166,VALID,343.0,VALID,0.0,
2019-10-29, 02:42:06,VALID,916.43,VALID,0.0,VALID,99.916,VALID,-0.095,VALID,20.166,VALID,343.0,VALID,0.0,
2019-10-29, 02:43:06,VALID,916.419,VALID,0.0,VALID,99.918,VALID,-0.074,VALID,20.185,VALID,345.0,VALID,0.0,
2019-10-29, 02:44:06,VALID,916.422,VALID,0.0,VALID,99.914,VALID,-0.103,VALID,20.187,VALID,345.0,VALID,0.0,
2019-10-29, 02:45:06,VALID,916.427,VALID,0.0,VALID,99.918,VALID,-0.091,VALID,20.2,VALID,345.0,VALID,0.0,
2019-10-29, 02:46:06,VALID,916.42,VALID,0.0,VALID,99.916,VALID,-0.089,VALID,20.222,VALID,345.0,VALID,0.0,
2019-10-29, 02:47:06,VALID,916.431,VALID,0.0,VALID,99.913,VALID,-0.093,VALID,20.262,VALID,346.0,VALID,0.0,
2019-10-29, 02:48:06,VALID,916.447,VALID,0.0,VALID,99.915,VALID,-0.088,VALID,20.278,VALID,346.0,VALID,0.0,
2019-10-29, 02:49:06,VALID,916.443,VALID,0.0,VALID,99.92,VALID,-0.1,VALID,20.261,VALID,346.0,VALID,0.0,
2019-10-29, 02:50:06,VALID,916.43,VALID,0.0,VALID,99.914,VALID,-0.103,VALID,20.272,VALID,346.0,VALID,0.0,
2019-10-29, 02:51:06,VALID,916.441,VALID,0.0,VALID,99.915,VALID,-0.061,VALID,20.273,VALID,346.0,VALID,0.0,
2019-10-29, 02:52:06,VALID,916.426,VALID,0.0,VALID,99.918,VALID,-0.006,VALID,20.263,VALID,345.0,VALID,0.0,
2019-10-29, 02:53:06,VALID,916.394,VALID,0.0,VALID,99.917,VALID,-0.008,VALID,20.274,VALID,345.0,VALID,0.0,
2019-10-29, 02:54:06,VALID,916.392,VALID,0.0,VALID,99.916,VALID,0.013,VALID,20.284,VALID,345.0,VALID,0.0,
2019-10-29, 02:55:06,VALID,916.371,VALID,0.0,VALID,99.918,VALID,0.001,VALID,20.286,VALID,345.0,VALID,0.0,
2019-10-29, 02:56:06,VALID,916.351,VALID,0.0,VALID,99.915,VALID,-0.009,VALID,20.265,VALID,345.0,VALID,0.0,
2019-10-29, 02:57:06,VALID,916.334,VALID,0.0,VALID,99.918,VALID,0.004,VALID,20.245,VALID,345.0,VALID,0.0,
2019-10-29, 02:58:06,VALID,916.34,VALID,0.0,VALID,99.919,VALID,0.015,VALID,20.234,VALID,346.0,VALID,0.0,
2019-10-29, 02:59:06,VALID,916.342,VALID,0.0,VALID,99.916,VALID,0.01,VALID,20.245,VALID,3.0,VALID,0.0,
2019-10-29, 03:00:06,VALID,916.328,VALID,0.0,VALID,99.917,VALID,0.012,VALID,20.25,VALID,9.0,VALID,0.0,
2019-10-29, 03:01:06,VALID,916.311,VALID,0.0,VALID,99.915,VALID,0.025,VALID,20.244,VALID,11.0,VALID,0.0,
2019-10-29, 03:02:06,VALID,916.311,VALID,0.0,VALID,99.917,VALID,0.011,VALID,20.245,VALID,11.0,VALID,0.0,
2019-10-29, 03:03:06,VALID,916.307,VALID,0.0,VALID,99.915,VALID,-0.001,VALID,20.253,VALID,8.0,VALID,0.0,
2019-10-29, 03:04:06,VALID,916.298,VALID,0.0,VALID,99.915,VALID,0.008,VALID,20.237,VALID,8.0,VALID,0.0,
2019-10-29, 03:05:06,VALID,916.308,VALID,0.0,VALID,99.918,VALID,0.022,VALID,20.243,VALID,8.0,VALID,0.0,
2019-10-29, 03:06:06,VALID,916.278,VALID,0.0,VALID,99.917,VALID,0.002,VALID,20.232,VALID,8.0,VALID,0.0,
2019-10-29, 03:07:06,VALID,916.278,VALID,0.0,VALID,99.92,VALID,-0.016,VALID,20.21,VALID,8.0,VALID,0.0,
2019-10-29, 03:08:06,VALID,916.266,VALID,0.0,VALID,99.917,VALID,-0.009,VALID,20.197,VALID,344.0,VALID,0.0,
2019-10-29, 03:09:06,VALID,916.261,VALID,0.0,VALID,99.915,VALID,-0.007,VALID,20.16,VALID,308.0,VALID,0.0,
2019-10-29, 03:10:06,VALID,916.25,VALID,0.0,VALID,99.918,VALID,-0.027,VALID,20.157,VALID,282.0,VALID,0.0,
2019-10-29, 03:11:06,VALID,916.27,VALID,0.0,VALID,99.915,VALID,-0.028,VALID,20.181,VALID,282.0,VALID,0.0,
2019-10-29, 03:12:06,VALID,916.25,VALID,0.0,VALID,99.916,VALID,-0.007,VALID,20.182,VALID,282.0,VALID,0.0,
2019-10-29, 03:13:06,VALID,916.234,VALID,0.0,VALID,99.917,VALID,-0.006,VALID,20.163,VALID,282.0,VALID,0.0,
2019-10-29, 03:14:06,VALID,916.225,VALID,0.0,VALID,99.916,VALID,-0.033,VALID,20.164,VALID,282.0,VALID,0.0,
2019-10-29, 03:15:06,VALID,916.21,VALID,0.0,VALID,99.917,VALID,-0.041,VALID,20.178,VALID,282.0,VALID,0.0,
2019-10-29, 03:16:06,VALID,916.211,VALID,0.0,VALID,99.917,VALID,-0.018,VALID,20.184,VALID,282.0,VALID,0.0,
2019-10-29, 03:17:06,VALID,916.193,VALID,0.0,VALID,99.918,VALID,-0.009,VALID,20.195,VALID,282.0,VALID,0.0,
2019-10-29, 03:18:06,VALID,916.196,VALID,0.0,VALID,99.917,VALID,-0.005,VALID,20.215,VALID,282.0,VALID,0.0,
2019-10-29, 03:19:06,VALID,916.173,VALID,0.0,VALID,99.916,VALID,-0.015,VALID,20.226,VALID,282.0,VALID,0.0,
2019-10-29, 03:20:06,VALID,916.144,VALID,0.0,VALID,99.918,VALID,-0.007,VALID,20.235,VALID,282.0,VALID,0.0,
2019-10-29, 03:21:06,VALID,916.137,VALID,0.0,VALID,99.918,VALID,-0.015,VALID,20.229,VALID,282.0,VALID,0.0,
2019-10-29, 03:22:06,VALID,916.135,VALID,0.0,VALID,99.915,VALID,-0.006,VALID,20.233,VALID,282.0,VALID,0.0,
2019-10-29, 03:23:06,VALID,916.108,VALID,0.0,VALID,99.917,VALID,-0.019,VALID,20.22,VALID,282.0,VALID,0.0,
2019-10-29, 03:24:06,VALID,916.108,VALID,0.0,VALID,99.917,VALID,-0.006,VALID,20.229,VALID,282.0,VALID,0.0,
2019-10-29, 03:25:06,VALID,916.089,VALID,0.0,VALID,99.916,VALID,-0.004,VALID,20.24,VALID,282.0,VALID,0.0,
2019-10-29, 03:26:06,VALID,916.114,VALID,0.0,VALID,99.917,VALID,-0.016,VALID,20.247,VALID,310.0,VALID,0.0,
2019-10-29, 03:27:06,VALID,916.104,VALID,0.0,VALID,99.915,VALID,-0.022,VALID,20.25,VALID,17.0,VALID,0.0,
2019-10-29, 03:28:06,VALID,916.115,VALID,0.0,VALID,99.917,VALID,-0.009,VALID,20.259,VALID,17.0,VALID,0.0,
2019-10-29, 03:29:06,VALID,916.106,VALID,0.0,VALID,99.917,VALID,-0.008,VALID,20.263,VALID,17.0,VALID,0.0,
2019-10-29, 03:30:06,VALID,916.117,VALID,0.0,VALID,99.918,VALID,-0.011,VALID,20.269,VALID,17.0,VALID,0.0,
2019-10-29, 03:31:06,VALID,916.107,VALID,0.0,VALID,99.917,VALID,-0.019,VALID,20.275,VALID,17.0,VALID,0.0,
2019-10-29, 03:32:06,VALID,916.102,VALID,0.0,VALID,99.916,VALID,-0.012,VALID,20.284,VALID,17.0,VALID,0.0,
2019-10-29, 03:33:06,VALID,916.09,VALID,0.0,VALID,99.919,VALID,-0.016,VALID,20.289,VALID,17.0,VALID,0.0,
2019-10-29, 03:34:06,VALID,916.081,VALID,0.0,VALID,99.916,VALID,-0.003,VALID,20.301,VALID,17.0,VALID,0.0,
2019-10-29, 03:35:06,VALID,916.063,VALID,0.0,VALID,99.92,VALID,0.007,VALID,20.312,VALID,17.0,VALID,0.0,
2019-10-29, 03:36:06,VALID,916.063,VALID,0.0,VALID,99.917,VALID,-0.017,VALID,20.302,VALID,17.0,VALID,0.0,
2019-10-29, 03:37:06,VALID,916.055,VALID,0.0,VALID,99.919,VALID,-0.008,VALID,20.253,VALID,17.0,VALID,0.0,
2019-10-29, 03:38:06,VALID,916.071,VALID,0.0,VALID,99.918,VALID,0.012,VALID,20.228,VALID,17.0,VALID,0.0,
2019-10-29, 03:39:06,VALID,916.063,VALID,0.0,VALID,99.917,VALID,-0.007,VALID,20.24,VALID,17.0,VALID,0.0,
2019-10-29, 03:40:06,VALID,916.041,VALID,0.0,VALID,99.917,VALID,0.006,VALID,20.247,VALID,17.0,VALID,0.0,
2019-10-29, 03:41:06,VALID,916.038,VALID,0.0,VALID,99.919,VALID,0.022,VALID,20.272,VALID,17.0,VALID,0.0,
2019-10-29, 03:42:06,VALID,916.017,VALID,0.0,VALID,99.917,VALID,0.008,VALID,20.263,VALID,17.0,VALID,0.0,